Regional Weather Roundup
Issued by NWS Newport/Morehead, NC

Current Version | Previous Version | Graphics & Text | Print | Product List | Glossary On
Versions: 1 2 3 4 5 6 7 8 9 10 11 12 13 14 15 16 17 18 19 20 21 22 23 24 25 26 27 28 29 30 31 32 33 34 35 36 37 38 39 40 41 42 43 44 45 46 47 48 49 50
000 ASUS42 KMHX 181010 RWRMHX WEATHER ROUNDUP FOR EASTERN NORTH CAROLINA NATIONAL WEATHER SERVICE NEWPORT/MOREHEAD CITY NC 600 AM EDT THU SEP 18 2014 NOTE: "FAIR" INDICATES FEW OR NO CLOUDS BELOW 12,000 FEET WITH NO SIGNIFICANT WEATHER AND/OR OBSTRUCTIONS TO VISIBILITY NCZ015>017-031-032-045>047-102-103-181100- NORTH COAST CITY SKY/WX TMP DP RH WIND PRES REMARKS EDENTON PTCLDY 61 60 96 N3 29.95R ELIZABETH CITY NOT AVBL KITTY HAWK SUNNY 69 57 65 NE6 29.93R MANTEO CLEAR 68 58 69 NE9 29.94R $$ NCZ045>047-081-094-103-104-181100- CENTRAL COAST CITY SKY/WX TMP DP RH WIND PRES REMARKS FRISCO PTCLDY 68 62 81 NE7 29.92R SWANQUARTER N/A 64 N/A N/A NE5 29.88S $$ NCZ095-097-098-100-101-181100- SOUTHERN COAST CITY SKY/WX TMP DP RH WIND PRES REMARKS BEAUFORT PTCLDY 69 64 84 N5 29.92R CEDAR ISLAND N/A 73 N/A N/A NE9G17 29.97R JACKSONVILLE MOCLDY 66 63 90 N5 29.92R NEWPORT NOT AVBL PINEY ISLAND MOSUNNY 75 62 64 NE10 29.92R WILMINGTON CLEAR 66 64 93 NE6 29.91R $$ NCZ011>013-027>030-043-044-078>080-089-090>093-098-181100- COASTAL PLAIN CITY SKY/WX TMP DP RH WIND PRES REMARKS AHOSKIE CLEAR 57 56 97 CALM 29.97R CLINTON PTCLDY 64 64 98 CALM 29.95R ELIZABETHTOWN PTCLDY 65 65 98 CALM 29.93R GOLDSBORO CLEAR 62 62 98 CALM 29.94R GREENVILLE MOCLDY 61 61 100 CALM 29.97R FOG HAVELOCK PTCLDY 69 65 86 NE3 29.93R KENANSVILLE CLEAR 63 61 94 CALM 29.95R KINSTON CLEAR 61 60 97 CALM 29.95R NEW BERN CLEAR 67 62 84 NE5 29.94R RICHLANDS PTCLDY 64 61 88 N6 29.93S ROANOKE RAPIDS NOT AVBL ROCKY MOUNT MOCLDY 61 59 93 NE3 29.97R WASHINGTON CLEAR 60 59 96 CALM 29.95R WHITEVILLE MOCLDY 67 65 93 NE3 29.92R $$ AMZ130-135-150-152-154-156-158-170-250-252-270-ANZ085-086-088-633-658-670-181100- MARINE OBSERVATIONS STATION/POSITION TIME TEMP WIND PRES WAVE SWELL AIR SEA DIR/SP/G HT/PER HT/PER (UTC) (F) (DEG/KT/KT) (MB) (FT/S) (FT/S) CHESAPEAKE LIGHT 0900 70 40/ 12/ 13 1014.5 BUOY 44014 1000 72 77 20/ 14/ 17 1013.2 4/11 3/11 DUCK 1000 71 76 30/ 12/ 14 1012.9 2E DUCK 1000 N/A 4/13 3/13 OREGON INLET 1000 71 75 20/ 10/ 12 1013.3 BUOY 44095 1000 76 N/A 5/13 3/13 20E OREGON INLET NOT AVBL HATTERAS CG 1000 72 76 40/ 9/ 13 1013.3 DIAMOND BUOY 1000 74 20/ 16/ 19 1012.2 6/12 5/12 CAPE LOOKOUT 0900 75 40/ 16/ 18 1012.1 BEAUFORT LAB 1000 70 79 30/ 5/ 7 1012.3 30 SE NEW RIVER 1000 77 82 50/ 14/ 16 1012.3 4/11 3/11 5 SE WRIGHTSVILL 0900 72 81 50/ 14/ 16 N/A BUOY 41002 0903 78 82 360/ 8/ 10 1011.4 4/10 3/10 BUOY 41004 1000 79 83 360/ 6/ 8 1011.8 4/11 3/11 $$

USA.gov is the U.S. government's official web portal to all federal, state and local government web resources and services.